Tracking 22438 objects as of 24-Feb-2021
HD Live streaming from Space Station
objects crossing your sky now

COSMOS 249 DEB *

Track COSMOS 249 DEB * now!
10-day predictions


NORAD ID: 6176
Int'l Code: 1968-091CG
Perigee: 890.8 km
Apogee: 1,592.9 km
Inclination: 65.7 °
Period: 110.2 minutes
Semi major axis: 7612 km
RCS: 0.0254 m2 (small)
Launch date: October 20, 1968
Source: Commonwealth of Independent States (former USSR) (CIS)
Launch site: TYURATAM MISSILE AND SPACE COMPLEX (TTMTR)

Note: This is SATELLITE DEBRIS
aabbcc
Your satellite tracking list
Your tracking list is empty




NASA's NSSDC Master Catalog

Two Line Element Set (TLE):
1  6176U 68091CG  21055.10576657  .00000422  00000-0  87642-3 0  9992
2  6176  65.7257 205.3803 0461177 136.6311 227.1991 13.07016423905802
Source of the keplerian elements: AFSPC